Location: Asheville, NC
(35.6000°N, 82.5500°W)
Time: 20:11:11
(UTC-04:00)

BEESAT 2 - Pass Details

Date: 13 March 2018
Orbit: 502 x 532 km, 64.9° (Epoch: 24 June)

Event Time Altitude Azimuth Distance (km) Brightness Sun altitude
Rises 20:06:10 0° 167° (SSE) 2,625 ? -6.9°
Reaches altitude 10° 20:09:10 10° 141° (SE) 1,751 ? -7.5°
Maximum altitude 20:11:16 14° 109° (ESE) 1,518 ? -8.0°
Drops below altitude 10° 20:13:22 10° 76° (ENE) 1,768 ? -8.4°
Enters shadow 20:13:26 10° 76° (ENE) 1,785 ? -8.4°
